Location: Newark
(53.7833°N, 9.4833°E)
Time: 11:30:56
(UTC+00:00)

Envisat - Pass Details

Date: 17 December 2019
Orbit: 764 x 766 km, 98.1° (Epoch: 23 January)

Event Time Altitude Azimuth Distance (km) Brightness Sun altitude
Rises 18:18:13 0° 202° (SSW) 3,224 6.5 -27.4°
Reaches altitude 10° 18:20:57 10° 216° (SW) 2,303 5.9 -27.8°
Maximum altitude 18:25:01 24° 270° (W) 1,563 5.3 -28.4°
Drops below altitude 10° 18:29:06 10° 323° (NW) 2,317 5.9 -29.0°
Sets 18:31:52 0° 337° (NNW) 3,248 6.5 -29.4°
